Weather History for KHHF - May, 2014

Change the Weather History Date:

Tuesday, May 6, 2014

  Actual Average (KPPA) Record (KPPA)
Temperature  
Mean Temperature 74 °F -  
Max Temperature 97 °F 75 °F 94 °F (1964)
Min Temperature 50 °F 48 °F 38 °F (1982)
Cooling Degree Days 8    
Growing Degree Days 24 (Base 50)    
Moisture  
Dew Point 16 °F    
Average Humidity 12    
Maximum Humidity 53    
Minimum Humidity 4    
Precipitation  
Precipitation 0.00 in - - ()
Sea Level Pressure  
Sea Level Pressure 29.59 in    
Wind  
Wind Speed 9 mph (SW)    
Max Wind Speed 30 mph    
Max Gust Speed 39 mph    
Visibility 10 miles    
Events      
Averages and records for this station are not official NWS values.
T = Trace of Precipitation, MM = Missing Value Source: NWS Daily Summary

Daily Weather History Graph

Daily Weather History Graph

Search for Another Location

Airport or City:

Trip Planner

Search our weather history database for the weather conditions in past years. The results will help you decide how hot, cold, wet, or windy it might be!

Date:

Astronomy

May. 06, 2014 Rise Set
Actual Time 6:44 AM CDT 8:32 PM CDT
Civil Twilight 6:16 AM CDT 9:00 PM CDT
Nautical Twilight 5:42 AM CDT 9:34 PM CDT
Astronomical Twilight 5:06 AM CDT 10:10 PM CDT
Moon 12:59 PM CDT (5/6) 1:55 AM CDT (5/6)
Length of Visible Light 14h 44m
Length of Day
13h 48m
Waxing Crescent, 46% of the Moon is Illuminated
May 6
Waxing Crescent
May 6
First Quarter
May 14
Full
May 21
Last Quarter
May 28
New

Hourly Weather History & Observations

Time (CDT) Temp. Dew Point Humidity Pressure Visibility Wind Dir Wind Speed Gust Speed Precip Events Conditions
12:15 AM 64.8 °F 26.1 °F 23% 29.67 in 10.0 mi Calm Calm - N/A   Clear
12:35 AM 61.9 °F 23.4 °F 23% 29.67 in 10.0 mi Calm Calm - N/A   Clear
12:55 AM 60.6 °F 22.6 °F 23% 29.66 in 10.0 mi Calm Calm - N/A   Clear
1:15 AM 63.1 °F 19.4 °F 19% 29.66 in 10.0 mi Calm Calm - N/A   Clear
1:35 AM 61.5 °F 22.3 °F 22% 29.65 in 10.0 mi Calm Calm - N/A   Clear
1:55 AM 60.1 °F 21.7 °F 23% 29.65 in 10.0 mi Calm Calm - N/A   Clear
2:15 AM 58.5 °F 25.9 °F 29% 29.64 in 10.0 mi Calm Calm - N/A   Clear
2:35 AM 61.5 °F 22.3 °F 22% 29.63 in 10.0 mi Calm Calm - N/A   Clear
6:55 AM 52.3 °F 31.6 °F 45% 29.63 in 10.0 mi Calm Calm - N/A   Clear
7:15 AM 50.0 °F 31.1 °F 48% 29.63 in 10.0 mi Calm Calm - N/A   Clear
7:35 AM 52.9 °F 35.2 °F 51% 29.63 in 7.0 mi NNE 3.5 mph - N/A   Clear
7:55 AM 56.1 °F 39.2 °F 53% 29.63 in 10.0 mi Calm Calm - N/A   Clear
8:15 AM 58.3 °F 35.8 °F 43% 29.65 in 10.0 mi NE 3.5 mph - N/A   Clear
8:55 AM 73.6 °F 25.5 °F 17% 29.65 in 10.0 mi WSW 10.4 mph - N/A   Clear
9:15 AM 80.1 °F 15.6 °F 9% 29.65 in 10.0 mi SW 12.7 mph 17.3 mph N/A   Clear
9:35 AM 81.3 °F 14.9 °F 8% 29.64 in 10.0 mi WSW 12.7 mph - N/A   Clear
9:55 AM 82.8 °F 13.6 °F 7% 29.64 in 10.0 mi WSW 15.0 mph - N/A   Clear
10:15 AM 85.1 °F 13.5 °F 7% 29.63 in 10.0 mi SW 13.8 mph 19.6 mph N/A   Clear
10:35 AM 87.1 °F 13.6 °F 7% 29.63 in 10.0 mi WSW 17.3 mph - N/A   Clear
10:55 AM 89.4 °F 12.6 °F 6% 29.63 in 10.0 mi WSW 19.6 mph 26.5 mph N/A   Clear
11:15 AM 90.7 °F 12.0 °F 5% 29.63 in 10.0 mi WSW 17.3 mph 24.2 mph N/A   Clear
11:35 AM 91.9 °F 11.7 °F 5% 29.63 in 10.0 mi WSW 15.0 mph 21.9 mph N/A   Clear
11:55 AM 93.4 °F 10.2 °F 5% 29.63 in 10.0 mi WSW 17.3 mph 24.2 mph N/A   Clear
12:15 PM 94.5 °F 10.4 °F 4% 29.63 in 10.0 mi WSW 16.1 mph 21.9 mph N/A   Clear
12:35 PM 94.8 °F 10.2 °F 4% 29.61 in 10.0 mi WSW 12.7 mph 17.3 mph N/A   Clear
12:55 PM 95.4 °F 7.9 °F 4% 29.61 in 10.0 mi WSW 20.7 mph 28.8 mph N/A   Clear
1:15 PM 95.4 °F 9.1 °F 4% 29.61 in 10.0 mi West 24.2 mph 29.9 mph N/A   Clear
1:35 PM 95.9 °F 8.8 °F 4% 29.60 in 10.0 mi WSW 16.1 mph 27.6 mph N/A   Clear
1:55 PM 96.1 °F 8.6 °F 4% 29.59 in 10.0 mi WSW 15.0 mph 26.5 mph N/A   Clear
2:15 PM 95.0 °F 9.7 °F 4% 29.58 in 10.0 mi SW 17.3 mph 32.2 mph N/A   Clear
2:35 PM 95.9 °F 9.5 °F 4% 29.57 in 10.0 mi WSW 19.6 mph 29.9 mph N/A   Clear
3:15 PM 97.3 °F 10.0 °F 4% 29.57 in 10.0 mi WSW 25.3 mph 29.9 mph N/A   Clear
3:35 PM 95.4 °F 9.9 °F 4% 29.56 in 10.0 mi WSW 24.2 mph 34.5 mph N/A   Clear
3:55 PM 97.2 °F 9.0 °F 4% 29.56 in 10.0 mi WSW 26.5 mph 38.0 mph N/A   Clear
4:15 PM 97.2 °F 9.9 °F 4% 29.55 in 10.0 mi West 20.7 mph 39.1 mph N/A   Clear
4:35 PM 96.8 °F 9.7 °F 4% 29.54 in 10.0 mi SSW 23.0 mph 35.7 mph N/A   Clear
4:55 PM 96.8 °F 9.5 °F 4% 29.54 in 10.0 mi SW 25.3 mph 33.4 mph N/A   Clear
5:15 PM 96.8 °F 9.9 °F 4% 29.54 in 10.0 mi SW 24.2 mph 35.7 mph N/A   Clear
5:35 PM 96.3 °F 8.8 °F 4% 29.54 in 10.0 mi SW 26.5 mph 33.4 mph N/A   Clear
5:55 PM 95.9 °F 9.7 °F 4% 29.54 in 10.0 mi SW 29.9 mph 36.8 mph N/A   Clear
6:15 PM 95.4 °F 9.7 °F 4% 29.54 in 10.0 mi SW 23.0 mph 29.9 mph N/A   Clear
6:35 PM 95.4 °F 10.8 °F 4% 29.53 in 10.0 mi SW 17.3 mph 25.3 mph N/A   Clear
6:55 PM 94.8 °F 11.8 °F 5% 29.53 in 10.0 mi SW 17.3 mph 24.2 mph N/A   Clear
7:15 PM 93.4 °F 10.8 °F 5% 29.52 in 10.0 mi SW 11.5 mph 17.3 mph N/A   Clear
7:35 PM 93.2 °F 12.2 °F 5% 29.52 in 10.0 mi SW 10.4 mph - N/A   Clear
7:55 PM 91.8 °F 13.8 °F 6% 29.52 in 10.0 mi SW 9.2 mph 17.3 mph N/A   Clear
8:15 PM 90.5 °F 12.6 °F 6% 29.53 in 10.0 mi SW 10.4 mph 17.3 mph N/A   Clear
8:35 PM 86.5 °F 13.1 °F 6% 29.53 in 10.0 mi SW 5.8 mph - N/A   Clear
8:55 PM 81.0 °F 14.7 °F 8% 29.54 in 10.0 mi South 8.1 mph - N/A   Clear
9:15 PM 78.1 °F 16.2 °F 10% 29.54 in 10.0 mi SSW 3.5 mph - N/A   Clear
9:35 PM 81.3 °F 13.8 °F 8% 29.55 in 10.0 mi SSW 11.5 mph - N/A   Clear
9:55 PM 76.3 °F 17.2 °F 11% 29.56 in 10.0 mi SSW 6.9 mph - N/A   Clear
10:15 PM 79.0 °F 15.4 °F 9% 29.56 in 10.0 mi SSW 8.1 mph - N/A   Clear
10:55 PM 73.4 °F 19.0 °F 13% 29.58 in 10.0 mi SW 3.5 mph - N/A   Clear
11:15 PM 75.0 °F 15.8 °F 11% 29.58 in 10.0 mi WSW 4.6 mph - N/A   Clear
11:35 PM 77.7 °F 9.9 °F 8% 29.58 in 10.0 mi SW 12.7 mph - N/A   Clear
11:55 PM 77.7 °F 9.7 °F 7% 29.58 in 10.0 mi SSW 12.7 mph 18.4 mph N/A   Clear